COSMOS 2251 DEB, 35459

Orbit data source: Space-Track

COSMOS 2251 DEB, 35459 is space debris in LEO originally from a launch on Wed, 16 Jun 1993 UTC launched from the Plesetsk Missile And Space Complex (PKMTR). The debris from Iridium 33, an American commercial communications satellite, has been tracked extensively since its accidental collision with the defunct Russian satellite Cosmos 2251 in 2009. This event, occurring at high speed in low Earth orbit (LEO), generated thousands of pieces of space debris, significantly increasing the risk of further collisions. The Iridium 33 debris cloud has impacted space traffic management and orbital debris mitigation strategies, making it a subject of ongoing study in space situational awareness.

Loading next visibility...
Identifier
35459, 1993-036ALD
Orbit
LEO
Country
Flag of CISCIS
Related business
Manufacturer
Unknown
Mission
Spacecraft
Bus & Motor
Unknown
Mass
Unknown
Launch date (UTC)
1993-06-16 (33 years ago)
Launch vehicle
Unknown
Launch site
Plesetsk Missile And Space Complex (PKMTR)
Object type
Payload
Rocket body
Debris
Shape & HBR
Unknown shape, 0.1 m
Radar Cross Section
Small (<0.1 m²)

Expand to show TLE details & history
Last TLE update: 1 week ago

TLE from 1 week ago
0 COSMOS 2251 DEB
1 35459U 93036ALD 26200.56498547  .00000329  00000-0  11825-3 0  9999
2 35459  73.8715 140.4414 0015743  38.3936 321.8334 14.37796957615069
Epoch: 2026-07-19T13:33Z
TLE epoch observation values (Epoch: 2026-07-19T13:33:34.744Z)
Latitude
-0.00002°
Longitude
-0.31493°
Altitude
759.553 km
Speed
7.479 km/s
True Right ascension
09h 21m 45s
True Declination
0° 00' 00"
Sunlit
Object was in daylight at epoch
Visualization orbit readout
Latitude
Unknown
Longitude
Unknown
Altitude
Unknown
Speed
Unknown
Apparent Right ascension
Unknown
Apparent Declination
Unknown
Sunlit
N/A
Visualization observer readout
Local Sidereal Time
06:33:39
Azimuth
Unknown
Elevation
Unknown
Doppler factor
Unknown
Orbital elements
Apogee altitude
774.666 km
Perigee altitude
752.18 km
Semi-major axis
7,141.56 km
Eccentricity
0.00157
Inclination
73.8715°
RAAN
140.4414°
Arg. of periapsis
38.3936°
True anomaly
321.72175°
Mean anomaly
321.8334°
Eccentric anomaly
321.77759°
Mean motion
3.59628 °/min
Orbital period
100.1 mins
BSTAR
0.00011825

Documentation

Showing up to 5 results
|